TimeEDT,TemperatureF,Dew PointF,Humidity,Sea Level PressureIn,VisibilityMPH,Wind Direction,Wind SpeedMPH,Gust SpeedMPH,PrecipitationIn,Events,Conditions,WindDirDegrees,DateUTC
12:15 AM,42.8,42.8,100,29.97,4.0,NNW,9.2,-,N/A,,Light Drizzle,340,2012-10-28 04:15:00
12:35 AM,42.8,42.8,100,29.97,4.0,North,6.9,-,N/A,,Light Drizzle,350,2012-10-28 04:35:00
12:55 AM,42.8,42.8,100,29.96,3.0,North,6.9,-,N/A,Rain,Light Rain,360,2012-10-28 04:55:00
1:15 AM,42.8,42.8,100,29.96,2.0,North,6.9,-,N/A,,Light Drizzle,350,2012-10-28 05:15:00
1:35 AM,42.8,42.8,100,29.95,3.0,North,6.9,-,N/A,,Light Drizzle,10,2012-10-28 05:35:00
2:15 AM,42.8,42.8,100,29.94,5.0,North,10.4,16.1,N/A,,Overcast,360,2012-10-28 06:15:00
2:35 AM,42.8,42.8,100,29.93,5.0,North,11.5,-,N/A,,Overcast,360,2012-10-28 06:35:00
2:55 AM,42.8,42.8,100,29.92,1.0,North,8.1,16.1,N/A,,Overcast,360,2012-10-28 06:55:00
3:15 AM,42.8,42.8,100,29.92,1.2,North,10.4,-,N/A,,Drizzle,350,2012-10-28 07:15:00
3:35 AM,42.8,42.8,100,29.91,3.0,North,9.2,-,N/A,Rain,Light Rain,360,2012-10-28 07:35:00
3:55 AM,42.8,42.8,100,29.90,1.8,North,6.9,-,N/A,,Drizzle,360,2012-10-28 07:55:00
4:15 AM,42.8,42.8,100,29.89,2.5,North,10.4,-,N/A,,Light Drizzle,350,2012-10-28 08:15:00
4:35 AM,42.8,42.8,100,29.89,1.8,North,6.9,-,N/A,,Overcast,350,2012-10-28 08:35:00
4:55 AM,42.8,42.8,100,29.90,0.5,North,8.1,-,N/A,Fog,Fog,360,2012-10-28 08:55:00
5:15 AM,42.8,42.8,100,29.90,0.2,North,9.2,-,N/A,Fog,Fog,10,2012-10-28 09:15:00
5:35 AM,42.8,42.8,100,29.91,0.5,North,8.1,-,N/A,Fog,Fog,360,2012-10-28 09:35:00
5:55 AM,42.8,42.8,100,29.90,1.0,North,9.2,-,N/A,,Light Drizzle,360,2012-10-28 09:55:00
6:15 AM,42.8,42.8,100,29.90,1.0,North,11.5,-,N/A,,Overcast,350,2012-10-28 10:15:00
6:35 AM,42.8,42.8,100,29.89,1.8,North,9.2,-,N/A,,Overcast,360,2012-10-28 10:35:00
6:55 AM,42.8,42.8,100,29.89,3.0,North,9.2,-,N/A,Rain,Rain,360,2012-10-28 10:55:00
7:15 AM,42.8,42.8,100,29.89,2.5,North,4.6,-,N/A,,Drizzle,10,2012-10-28 11:15:00
7:35 AM,42.8,42.8,100,29.89,0.8,North,9.2,-,N/A,,Overcast,360,2012-10-28 11:35:00
7:55 AM,42.8,42.8,100,29.89,0.2,North,8.1,-,N/A,Fog,Fog,360,2012-10-28 11:55:00
8:15 AM,42.8,42.8,100,29.89,1.0,North,6.9,-,0.01,Rain,Light Rain,350,2012-10-28 12:15:00
8:35 AM,42.8,42.8,100,29.89,2.0,North,6.9,-,0.01,Rain,Light Rain,350,2012-10-28 12:35:00
8:55 AM,42.8,42.8,100,29.89,2.0,North,10.4,17.3,0.01,Rain,Rain,350,2012-10-28 12:55:00
9:15 AM,42.8,42.8,100,29.89,2.5,North,9.2,-,0.06,Rain,Heavy Rain,350,2012-10-28 13:15:00
9:35 AM,42.8,42.8,100,29.90,1.0,North,8.1,-,0.17,,Overcast,350,2012-10-28 13:35:00
9:55 AM,42.8,42.8,100,29.89,7.0,North,9.2,-,0.19,Rain,Rain,360,2012-10-28 13:55:00
10:15 AM,42.8,42.8,100,29.89,7.0,NNW,9.2,-,N/A,,Overcast,340,2012-10-28 14:15:00
10:35 AM,42.8,42.8,100,29.88,10.0,NNW,12.7,18.4,N/A,,Overcast,340,2012-10-28 14:35:00
10:55 AM,42.8,42.8,100,29.88,10.0,North,11.5,16.1,N/A,,Overcast,350,2012-10-28 14:55:00
11:15 AM,42.8,42.8,100,29.88,7.0,North,12.7,17.3,N/A,,Overcast,350,2012-10-28 15:15:00
11:35 AM,42.8,42.8,100,29.88,10.0,NNW,8.1,-,N/A,,Overcast,340,2012-10-28 15:35:00
11:55 AM,42.8,42.8,100,29.88,10.0,NNW,10.4,-,N/A,,Overcast,340,2012-10-28 15:55:00
12:15 PM,42.8,42.8,100,29.88,10.0,North,9.2,-,N/A,,Overcast,360,2012-10-28 16:15:00
12:35 PM,42.8,42.8,100,29.88,7.0,NNW,6.9,-,N/A,,Light Drizzle,340,2012-10-28 16:35:00
12:55 PM,42.8,42.8,100,29.87,4.0,North,9.2,-,N/A,,Drizzle,350,2012-10-28 16:55:00
1:15 PM,42.8,42.8,100,29.86,4.0,North,10.4,-,N/A,Rain,Rain,350,2012-10-28 17:15:00
1:35 PM,41.0,41.0,100,29.85,2.5,NNW,5.8,-,N/A,Rain,Light Rain,330,2012-10-28 17:35:00
1:55 PM,41.0,41.0,100,29.86,2.5,NNW,8.1,-,0.01,Rain,Rain,330,2012-10-28 17:55:00
2:15 PM,41.0,41.0,100,29.85,4.0,NNW,10.4,-,0.03,Rain,Rain,330,2012-10-28 18:15:00
2:35 PM,41.0,41.0,100,29.85,5.0,NW,6.9,-,0.06,Rain,Rain,320,2012-10-28 18:35:00
2:55 PM,41.0,41.0,100,29.85,10.0,NW,10.4,19.6,0.08,Rain,Light Rain,310,2012-10-28 18:55:00
3:15 PM,41.0,41.0,100,29.86,10.0,NNW,6.9,17.3,0.01,Rain,Rain,330,2012-10-28 19:15:00
3:35 PM,41.0,41.0,100,29.86,7.0,NW,6.9,-,0.03,Rain,Rain,320,2012-10-28 19:35:00
3:55 PM,39.2,39.2,100,29.86,7.0,NW,9.2,17.3,0.04,Rain,Light Rain,320,2012-10-28 19:55:00
4:15 PM,37.4,37.4,100,29.87,4.0,NW,12.7,18.4,0.02,Rain,Rain,320,2012-10-28 20:15:00
4:35 PM,35.6,35.6,100,29.87,2.5,WNW,5.8,-,0.06,Snow,Light Snow,300,2012-10-28 20:35:00
4:55 PM,35.6,35.6,100,29.87,3.0,NW,6.9,-,0.08,Snow,Light Snow,310,2012-10-28 20:55:00
5:15 PM,33.8,33.8,100,29.88,1.5,WNW,5.8,-,0.02,Snow,Light Snow,300,2012-10-28 21:15:00
5:35 PM,33.8,33.8,100,29.88,0.8,NW,5.8,-,0.04,Snow,Light Snow,310,2012-10-28 21:35:00
5:55 PM,33.8,33.8,100,29.88,0.8,NW,6.9,-,0.06,Snow,Light Snow,310,2012-10-28 21:55:00
6:15 PM,33.8,33.8,100,29.89,1.2,NW,4.6,-,0.01,Snow,Light Snow,310,2012-10-28 22:15:00
6:35 PM,33.8,33.8,100,29.89,2.5,NW,6.9,-,0.02,Snow,Light Snow,310,2012-10-28 22:35:00
6:55 PM,33.8,33.8,100,29.89,1.0,NW,6.9,-,0.02,Snow,Light Snow,320,2012-10-28 22:55:00
7:15 PM,33.8,33.8,100,29.90,1.5,NW,4.6,-,N/A,Snow,Light Snow,310,2012-10-28 23:15:00
7:35 PM,33.8,33.8,100,29.90,7.0,NNW,6.9,-,N/A,Rain,Light Rain,330,2012-10-28 23:35:00
7:55 PM,33.8,33.8,100,29.90,2.0,NW,8.1,-,N/A,Rain,Light Rain,310,2012-10-28 23:55:00
8:15 PM,33.8,33.8,100,29.90,7.0,NW,6.9,-,N/A,,Overcast,310,2012-10-29 00:15:00
8:35 PM,33.8,33.8,100,29.90,7.0,WNW,8.1,-,N/A,Rain,Light Rain,300,2012-10-29 00:35:00
9:15 PM,33.8,33.8,100,29.90,7.0,NW,8.1,17.3,N/A,Snow,Light Snow,320,2012-10-29 01:15:00
9:35 PM,33.8,33.8,100,29.90,7.0,NW,8.1,18.4,N/A,Snow,Light Snow,320,2012-10-29 01:35:00
9:55 PM,33.8,33.8,100,29.90,5.0,NW,10.4,16.1,N/A,Snow,Light Snow,320,2012-10-29 01:55:00
10:15 PM,33.8,33.8,100,29.89,4.0,NW,11.5,-,N/A,Snow,Light Snow,310,2012-10-29 02:15:00
10:35 PM,33.8,33.8,100,29.89,4.0,NNW,9.2,-,N/A,Snow,Light Snow,330,2012-10-29 02:35:00
10:55 PM,33.8,33.8,100,29.89,4.0,NNW,11.5,18.4,N/A,Snow,Light Snow,340,2012-10-29 02:55:00
11:15 PM,33.8,33.8,100,29.89,3.0,NW,8.1,17.3,N/A,Snow,Light Snow,320,2012-10-29 03:15:00
11:35 PM,33.8,33.8,100,29.89,2.5,NW,8.1,-,N/A,Snow,Light Snow,320,2012-10-29 03:35:00
11:55 PM,33.8,33.8,100,29.88,3.0,NNW,10.4,16.1,N/A,Snow,Light Snow,330,2012-10-29 03:55:00